Farmington, MO

5:44 PM CDT on October 22, 2019 (GMT -0500)
Farmington Regional

Weather History for KFAM - August, 2019

Change the Weather History Date:

Saturday, August 24, 2019

  Actual Average Record
Temperature  
Mean Temperature 68 °F -  
Max Temperature 75 °F 84 °F 98 °F (2007)
Min Temperature 64 °F 63 °F 54 °F (2017)
Cooling Degree Days 4    
Growing Degree Days 18 (Base 50)    
Moisture  
Dew Point 61 °F    
Average Humidity 77    
Maximum Humidity 96    
Minimum Humidity 55    
Precipitation  
Precipitation 0.02 in - - ()
Sea Level Pressure  
Sea Level Pressure 30.14 in    
Wind  
Wind Speed 6 mph ()    
Max Wind Speed 15 mph    
Max Gust Speed 18 mph    
Visibility 10.0 miles    
Events      
Averages and records for this station are not official NWS values.
T = Trace of Precipitation, MM = Missing Value Source: Averaged Metar Reports

Daily Weather History Graph

Daily Weather History Graph

Search for Another Location

Airport or City:

Astronomy

Aug. 24, 2019 Rise Set
Actual Time 6:24 AM CDT 7:42 PM CDT
Civil Twilight 5:57 AM CDT 8:10 PM CDT
Nautical Twilight 5:24 AM CDT 8:42 PM CDT
Astronomical Twilight 4:50 AM CDT 9:16 PM CDT
Moon 12:20 AM CDT (8/24) 2:55 PM CDT (8/24)
Length of Visible Light 14h 12m
Length of Day
13h 17m
Last Quarter, 39% of the Moon is Illuminated
Aug 24
Last Quarter
Aug 30
New
Sep 5
First Quarter
Sep 13
Full
Sep 21
Last Quarter

Hourly Weather History & Observations

Time (CDT) Temp. Dew Point Humidity Pressure Visibility Wind Dir Wind Speed Gust Speed Precip Events Conditions
12:56 AM 66.0 °F 64.9 °F 96% 30.14 in 10.0 mi ENE 5.8 mph - N/A   Clear
1:56 AM 66.0 °F 64.9 °F 96% 30.16 in 10.0 mi NE 3.5 mph - 0.01 in   Scattered Clouds
2:56 AM 66.0 °F 64.0 °F 93% 30.14 in 10.0 mi East 4.6 mph - N/A   Mostly Cloudy
3:56 AM 66.0 °F 64.0 °F 93% 30.15 in 10.0 mi ENE 5.8 mph - N/A   Scattered Clouds
4:56 AM 64.9 °F 63.0 °F 93% 30.16 in 10.0 mi ENE 5.8 mph - N/A   Mostly Cloudy
5:56 AM 64.9 °F 63.0 °F 93% 30.17 in 10.0 mi East 4.6 mph - N/A   Clear
6:56 AM 64.0 °F 63.0 °F 96% 30.18 in 10.0 mi ENE 4.6 mph - N/A   Scattered Clouds
7:56 AM 66.0 °F 63.0 °F 90% 30.19 in 10.0 mi East 8.1 mph - N/A   Overcast
8:56 AM 70.0 °F 60.1 °F 71% 30.17 in 10.0 mi East 13.8 mph 18.4 mph N/A   Clear
9:56 AM 72.0 °F 57.9 °F 61% 30.18 in 10.0 mi East 15.0 mph - N/A   Clear
10:56 AM 73.9 °F 57.0 °F 55% 30.17 in 10.0 mi East 15.0 mph - N/A   Clear
11:56 AM 73.9 °F 57.9 °F 57% 30.15 in 10.0 mi East 13.8 mph - N/A   Scattered Clouds
12:56 PM 73.0 °F 59.0 °F 61% 30.14 in 10.0 mi East 9.2 mph - N/A   Overcast
1:56 PM 73.9 °F 59.0 °F 59% 30.14 in 10.0 mi East 11.5 mph - N/A   Mostly Cloudy
2:56 PM 73.9 °F 60.1 °F 62% 30.13 in 10.0 mi East 9.2 mph - N/A   Partly Cloudy
3:56 PM 73.0 °F 60.1 °F 64% 30.11 in 10.0 mi ENE 10.4 mph - N/A   Clear
4:56 PM 72.0 °F 60.1 °F 66% 30.09 in 10.0 mi ENE 8.1 mph - N/A   Clear
6:56 PM 71.1 °F 61.0 °F 70% 30.09 in 10.0 mi ENE 5.8 mph - 0.01 in   Clear
7:56 PM 70.0 °F 62.1 °F 76% 30.11 in 10.0 mi ENE 4.6 mph - N/A   Clear
8:56 PM 69.1 °F 62.1 °F 78% 30.11 in 10.0 mi ENE 6.9 mph - N/A   Partly Cloudy
9:56 PM 68.0 °F 62.1 °F 81% 30.12 in 10.0 mi East 3.5 mph - N/A   Clear
10:56 PM 68.0 °F 62.1 °F 81% 30.12 in 10.0 mi East 4.6 mph - N/A   Scattered Clouds
11:56 PM 66.9 °F 61.0 °F 81% 30.11 in 10.0 mi East 4.6 mph - N/A   Overcast